Weather History for Tacoma Narrows, WA

Change the Weather History Date:

Tuesday, April 1, 2014

  Actual Average Record
Temperature  
Mean Temperature 51 °F -  
Max Temperature 57 °F 51 °F 62 °F (2013)
Min Temperature 45 °F 39 °F 33 °F (1999)
Degree Days  
Heating Degree Days 14    
Growing Degree Days 1 (Base 50)    
Moisture  
Dew Point 39 °F    
Average Humidity 68    
Maximum Humidity 80    
Minimum Humidity 51    
Precipitation  
Precipitation 0.00 in - - ()
Sea Level Pressure  
Sea Level Pressure 29.83 in    
Wind  
Wind Speed 6 mph (West)    
Max Wind Speed 14 mph    
Max Gust Speed -    
Visibility 10 miles    
Events      
Averages and records for this station are not official NWS values.
T = Trace of Precipitation, MM = Missing Value Source: NWS Daily Summary

Daily Weather History Graph

Daily Weather History Graph

Search for Another Location

Airport:

Trip Planner

Search our weather history database for the weather conditions in past years. The results will help you decide how hot, cold, wet, or windy it might be!

Date:

Astronomy

Apr. 01, 2014 Rise Set
Actual Time 6:48 AM PDT 7:40 PM PDT
Civil Twilight 6:18 AM PDT 8:11 PM PDT
Nautical Twilight 5:41 AM PDT 8:48 PM PDT
Astronomical Twilight 5:02 AM PDT 9:27 PM PDT
Moon 7:47 AM PDT 10:18 PM PDT
Length of Visible Light 13h 53m
Length of Day
12h 51m
Waxing Crescent, 5% of the Moon is Illuminated
Apr 1
Waxing Crescent
Apr 7
First Quarter
Apr 15
Full
Apr 22
Last Quarter
Apr 28
New

Hourly Weather History & Observations

Time (PDT) Temp. Windchill Dew Point Humidity Pressure Visibility Wind Dir Wind Speed Gust Speed Precip Events Conditions
12:53 AM 48.0 °F - 37.0 °F 66% 29.71 in 10.0 mi North 13.8 mph - N/A   Mostly Cloudy
1:53 AM 48.0 °F - 37.0 °F 66% 29.74 in 10.0 mi Calm Calm - N/A   Overcast
2:53 AM 46.0 °F - 37.0 °F 71% 29.75 in 10.0 mi Calm Calm - N/A   Clear
3:53 AM 46.9 °F - 37.9 °F 71% 29.75 in 10.0 mi NNE 3.5 mph - N/A   Mostly Cloudy
4:53 AM 46.9 °F - 37.9 °F 71% 29.76 in 10.0 mi NNE 4.6 mph - N/A   Overcast
5:53 AM 45.0 °F 43.5 °F 39.0 °F 80% 29.77 in 10.0 mi NW 3.5 mph - N/A   Overcast
6:53 AM 46.0 °F 43.9 °F 39.0 °F 76% 29.78 in 10.0 mi NNW 4.6 mph - N/A   Overcast
7:53 AM 46.0 °F - 39.9 °F 79% 29.80 in 10.0 mi Calm Calm - N/A   Overcast
8:53 AM 48.9 °F - 37.9 °F 66% 29.82 in 10.0 mi North 8.1 mph - N/A   Clear
9:53 AM 48.0 °F - 37.9 °F 68% 29.84 in 10.0 mi NNE 6.9 mph - N/A   Partly Cloudy
10:53 AM 51.1 °F - 39.9 °F 66% 29.85 in 10.0 mi North 4.6 mph - N/A   Overcast
11:53 AM 51.1 °F - 37.9 °F 61% 29.86 in 10.0 mi Calm Calm - N/A   Overcast
12:53 PM 52.0 °F - 39.9 °F 63% 29.86 in 10.0 mi SSE 3.5 mph - N/A   Mostly Cloudy
1:53 PM 54.0 °F - 41.0 °F 62% 29.86 in 10.0 mi SSE 9.2 mph - N/A   Overcast
2:53 PM 54.0 °F - 42.1 °F 64% 29.86 in 10.0 mi SSE 8.1 mph - N/A   Partly Cloudy
3:53 PM 55.9 °F - 41.0 °F 57% 29.85 in 10.0 mi SSE 4.6 mph - N/A   Mostly Cloudy
4:53 PM 57.0 °F - 39.0 °F 51% 29.86 in 10.0 mi WSW 6.9 mph - N/A   Overcast
5:53 PM 55.9 °F - 41.0 °F 57% 29.86 in 10.0 mi West 8.1 mph - N/A   Overcast
6:53 PM 53.1 °F - 39.0 °F 59% 29.86 in 10.0 mi WSW 4.6 mph - N/A   Overcast
7:53 PM 51.1 °F - 41.0 °F 68% 29.87 in 10.0 mi Variable 5.8 mph - N/A   Partly Cloudy
8:53 PM 48.9 °F - 42.1 °F 77% 29.89 in 10.0 mi SW 4.6 mph - N/A   Clear
9:53 PM 48.9 °F - 42.1 °F 77% 29.90 in 10.0 mi Calm Calm - N/A   Clear
10:53 PM 46.9 °F - 41.0 °F 80% 29.92 in 10.0 mi SSW 5.8 mph - N/A   Clear
11:53 PM 46.0 °F 41.9 °F 39.9 °F 79% 29.92 in 10.0 mi South 8.1 mph - N/A   Partly Cloudy